sat.trackr.live / text

‹ back to catalog

STARLINK-1523

NORAD 46028 · 2020-055B

PAYLOAD ACTIVE UNKNOWN

§ Identity

Operator
Country
US
Launch date
2020-08-07
Launch site
AFETR
Launch vehicle
Mass (kg)
RCS (m²)

Purposes: comms

External: N2YO · Heavens-Above · Gunter

§ Orbital elements

Epoch: 2026-09-12T05:23:47.809824Z

Period
93.67 min
Inclination
53.1593°
Eccentricity
0.0000745
Mean motion
15.37370417 rev/d
Perigee alt
453.4 km
Apogee alt
454.4 km
Semi-major
6,832.0 km
B*
9.5757e-4
RAAN
337.7976°
Arg perigee
317.5627°
Mean anomaly
42.5319°
Rev number
33,749

§ Raw data

STARLINK-15231 46028U 20055B   26255.22485891  .00035366  00000+0  95757-3 0  99992 46028  53.1593 337.7976 0000745 317.5627  42.5319 15.37370417337495

JSON: /api/v1/satellites/46028 · /tle

For live sub-satellite position, see the globe view (requires WebGL).

§ Visibility from observer

Set your observer location to see the next 7 days of passes ≥ 10°. The values pass through the URL so the page stays shareable.

No JS? Fill the form by hand. The geolocation button needs JavaScript.